Weather History for McGregor, MN

Change the Weather History Date:

Tuesday, March 5, 2013

  Actual Average (KAIT) Record (KAIT)
Temperature  
Mean Temperature 21 °F -  
Max Temperature 28 °F 33 °F 49 °F (1974)
Min Temperature 14 °F 9 °F -21 °F (1960)
Degree Days  
Heating Degree Days 44    
Moisture  
Dew Point 21 °F    
Average Humidity 88    
Maximum Humidity 93    
Minimum Humidity 80    
Precipitation  
Precipitation 0.09 in - - ()
Sea Level Pressure  
Sea Level Pressure 30.13 in    
Wind  
Wind Speed 7 mph (NE)    
Max Wind Speed 12 mph    
Max Gust Speed 21 mph    
Visibility 4 miles    
Events      
Averages and records for this station are not official NWS values.
T = Trace of Precipitation, MM = Missing Value Source: NWS Daily Summary

Daily Weather History Graph

Daily Weather History Graph

Search for Another Location

Airport:

Trip Planner

Search our weather history database for the weather conditions in past years. The results will help you decide how hot, cold, wet, or windy it might be!

Date:

Astronomy

Mar. 05, 2013 Rise Set
Actual Time 6:44 AM CST 6:05 PM CST
Civil Twilight 6:14 AM CST 6:35 PM CST
Nautical Twilight 5:39 AM CST 7:10 PM CST
Astronomical Twilight 5:04 AM CST 7:45 PM CST
Moon 2:13 AM CST (3/5) 11:28 AM CST (3/5)
Length of Visible Light 12h 20m
Length of Day
11h 20m
Last Quarter, 40% of the Moon is Illuminated
Mar 5
Last Quarter
Mar 11
New
Mar 19
First Quarter
Mar 27
Full
Apr 2
Last Quarter

Hourly Weather History & Observations

Time (CST) Temp. Windchill Dew Point Humidity Pressure Visibility Wind Dir Wind Speed Gust Speed Precip Events Conditions
12:12 AM 24.8 °F 16.1 °F 23.0 °F 93% 30.03 in 1.0 mi East 8.1 mph - N/A   Overcast
12:31 AM 24.8 °F 16.9 °F 23.0 °F 93% 30.02 in 0.8 mi East 6.9 mph - N/A   Overcast
12:53 AM 24.8 °F 16.1 °F 23.0 °F 93% 30.02 in 1.2 mi East 8.1 mph - N/A   Overcast
1:13 AM 26.6 °F 19.1 °F 23.0 °F 86% 30.02 in 1.2 mi East 6.9 mph - N/A   Overcast
1:53 AM 26.6 °F 17.5 °F 23.0 °F 86% 30.02 in 0.8 mi East 9.2 mph - 0.01 in   Overcast
2:13 AM 26.6 °F 16.8 °F 23.0 °F 86% 30.01 in 1.0 mi East 10.4 mph - N/A   Overcast
2:31 AM 26.6 °F 18.2 °F 23.0 °F 86% 30.01 in 1.0 mi East 8.1 mph - N/A   Overcast
2:53 AM 24.8 °F 14.0 °F 23.0 °F 93% 30.01 in 1.0 mi ESE 11.5 mph 20.7 mph N/A   Overcast
3:13 AM 24.8 °F 14.6 °F 23.0 °F 93% 30.01 in 0.8 mi ESE 10.4 mph - N/A   Overcast
3:31 AM 24.8 °F 19.1 °F 23.0 °F 93% 30.01 in 0.8 mi ESE 4.6 mph - N/A   Overcast
3:52 AM 24.8 °F 19.1 °F 23.0 °F 93% 30.01 in 0.5 mi East 4.6 mph - N/A   Overcast
4:12 AM 24.8 °F 17.9 °F 23.0 °F 93% 30.01 in 0.5 mi ESE 5.8 mph - 0.01 in   Overcast
4:33 AM 24.8 °F 17.9 °F 23.0 °F 93% 30.02 in 0.8 mi East 5.8 mph - 0.01 in   Overcast
4:53 AM 24.8 °F 15.3 °F 23.0 °F 93% 30.02 in 0.8 mi East 9.2 mph - 0.01 in   Overcast
5:13 AM 24.8 °F 19.1 °F 23.0 °F 93% 30.02 in 0.8 mi East 4.6 mph - N/A   Overcast
5:33 AM 24.8 °F 20.5 °F 23.0 °F 93% 30.03 in 0.8 mi East 3.5 mph - N/A   Overcast
5:53 AM 24.8 °F - 23.0 °F 93% 30.04 in 0.5 mi Calm Calm - N/A   Overcast
6:13 AM 24.8 °F - 23.0 °F 93% 30.04 in 0.5 mi Calm Calm - N/A   Overcast
7:12 AM 24.8 °F 16.1 °F 23.0 °F 93% 30.05 in 0.5 mi ENE 8.1 mph - 0.02 in   Overcast
7:32 AM 24.8 °F 16.1 °F 23.0 °F 93% 30.05 in 0.8 mi ENE 8.1 mph - 0.03 in   Overcast
7:53 AM 24.8 °F 16.9 °F 23.0 °F 93% 30.06 in 0.8 mi ENE 6.9 mph - 0.05 in   Overcast
8:12 AM 24.8 °F 16.9 °F 23.0 °F 93% 30.07 in 1.0 mi NE 6.9 mph - N/A   Overcast
8:33 AM 26.6 °F 19.1 °F 23.0 °F 86% 30.07 in 1.0 mi ENE 6.9 mph - N/A   Overcast
8:53 AM 26.6 °F 20.0 °F 23.0 °F 86% 30.08 in 1.2 mi ENE 5.8 mph - N/A   Overcast
9:13 AM 26.6 °F 20.0 °F 23.0 °F 86% 30.09 in 1.0 mi NE 5.8 mph - 0.01 in   Overcast
9:33 AM 26.6 °F 18.2 °F 23.0 °F 86% 30.09 in 1.0 mi NE 8.1 mph - 0.01 in   Overcast
9:51 AM 26.6 °F 19.1 °F 23.0 °F 86% 30.10 in 1.0 mi ENE 6.9 mph - 0.01 in   Overcast
10:13 AM 26.6 °F 18.2 °F 23.0 °F 86% 30.10 in 1.5 mi NE 8.1 mph - N/A   Overcast
10:33 AM 26.6 °F 18.2 °F 23.0 °F 86% 30.11 in 1.2 mi NE 8.1 mph - N/A   Overcast
10:51 AM 26.6 °F 16.8 °F 23.0 °F 86% 30.11 in 1.0 mi ENE 10.4 mph - N/A   Overcast
11:13 AM 26.6 °F 18.2 °F 23.0 °F 86% 30.12 in 1.8 mi ENE 8.1 mph - N/A   Overcast
11:33 AM 26.6 °F 16.8 °F 21.2 °F 80% 30.12 in 1.0 mi ENE 10.4 mph - N/A   Overcast
11:51 AM 26.6 °F 18.2 °F 23.0 °F 86% 30.13 in 1.0 mi ENE 8.1 mph - N/A   Overcast
12:13 PM 26.6 °F 18.2 °F 23.0 °F 86% 30.13 in 1.2 mi NNE 8.1 mph - N/A   Overcast
12:32 PM 26.6 °F 20.0 °F 23.0 °F 86% 30.13 in 1.2 mi NE 5.8 mph - N/A   Overcast
12:51 PM 26.6 °F 20.0 °F 23.0 °F 86% 30.13 in 1.5 mi NNE 5.8 mph - N/A   Overcast
1:13 PM 28.4 °F 22.2 °F 23.0 °F 80% 30.13 in 2.0 mi NNE 5.8 mph - N/A   Overcast
1:33 PM 28.4 °F 22.2 °F 23.0 °F 80% 30.13 in 1.8 mi NE 5.8 mph - N/A   Overcast
1:53 PM 28.4 °F 21.2 °F 23.0 °F 80% 30.13 in 1.5 mi NE 6.9 mph - N/A   Overcast
2:12 PM 28.4 °F 20.4 °F 24.8 °F 86% 30.14 in 2.0 mi NE 8.1 mph - N/A   Overcast
2:33 PM 28.4 °F 19.7 °F 23.0 °F 80% 30.14 in 1.8 mi NE 9.2 mph - 0.01 in   Overcast
2:52 PM 28.4 °F 19.7 °F 23.0 °F 80% 30.15 in 4.0 mi NE 9.2 mph - 0.01 in   Overcast
3:12 PM 28.4 °F 20.4 °F 23.0 °F 80% 30.16 in 4.0 mi NE 8.1 mph - N/A   Overcast
3:33 PM 28.4 °F 21.2 °F 23.0 °F 80% 30.16 in 7.0 mi NNE 6.9 mph - N/A   Overcast
3:53 PM 28.4 °F 20.4 °F 23.0 °F 80% 30.17 in 5.0 mi North 8.1 mph - N/A   Overcast
4:13 PM 26.6 °F 17.5 °F 23.0 °F 86% 30.18 in 5.0 mi North 9.2 mph - N/A   Overcast
4:33 PM 26.6 °F 16.2 °F 23.0 °F 86% 30.18 in 5.0 mi North 11.5 mph - N/A   Overcast
4:53 PM 26.6 °F 17.5 °F 21.2 °F 80% 30.19 in 7.0 mi North 9.2 mph - N/A   Overcast
5:13 PM 26.6 °F 17.5 °F 21.2 °F 80% 30.20 in 7.0 mi North 9.2 mph - N/A   Overcast
5:32 PM 26.6 °F 16.8 °F 21.2 °F 80% 30.21 in 7.0 mi North 10.4 mph - N/A   Overcast
5:52 PM 26.6 °F 18.2 °F 21.2 °F 80% 30.22 in 7.0 mi North 8.1 mph - N/A   Overcast
6:11 PM 24.8 °F 19.1 °F 21.2 °F 86% 30.23 in 3.0 mi NNE 4.6 mph - N/A   Overcast
6:33 PM 24.8 °F 17.9 °F 21.2 °F 86% 30.24 in 4.0 mi North 5.8 mph - N/A   Overcast
6:53 PM 24.8 °F 19.1 °F 21.2 °F 86% 30.24 in 3.0 mi North 4.6 mph - N/A   Overcast
7:13 PM 23.0 °F 17.0 °F 21.2 °F 93% 30.24 in 4.0 mi North 4.6 mph - N/A   Mostly Cloudy
7:32 PM 23.0 °F 15.8 °F 21.2 °F 93% 30.25 in 10.0 mi North 5.8 mph - N/A   Mostly Cloudy
7:52 PM 23.0 °F 14.7 °F 19.4 °F 86% 30.24 in 10.0 mi North 6.9 mph - N/A   Mostly Cloudy
8:13 PM 21.2 °F 12.6 °F 17.6 °F 86% 30.25 in 10.0 mi North 6.9 mph - N/A   Scattered Clouds
8:32 PM 21.2 °F 12.6 °F 19.4 °F 93% 30.25 in 10.0 mi North 6.9 mph - N/A   Mostly Cloudy
8:53 PM 21.2 °F 13.6 °F 19.4 °F 93% 30.26 in 10.0 mi NNW 5.8 mph - N/A   Overcast
9:13 PM 19.4 °F 10.4 °F 15.8 °F 86% 30.27 in 10.0 mi NNW 6.9 mph - N/A   Scattered Clouds
9:33 PM 17.6 °F 12.3 °F 15.8 °F 93% 30.27 in 10.0 mi North 3.5 mph - N/A   Clear
9:52 PM 17.6 °F 10.7 °F 14.0 °F 86% 30.28 in 10.0 mi NW 4.6 mph - N/A   Clear
10:12 PM 17.6 °F 10.7 °F 15.8 °F 93% 30.28 in 10.0 mi WNW 4.6 mph - N/A   Clear
10:32 PM 17.6 °F - 15.8 °F 93% 30.27 in 10.0 mi Calm Calm - N/A   Scattered Clouds
10:52 PM 15.8 °F - 14.0 °F 93% 30.28 in 10.0 mi Calm Calm - N/A   Clear
11:11 PM 14.0 °F 8.2 °F 12.2 °F 93% 30.28 in 10.0 mi WNW 3.5 mph - N/A   Clear
11:33 PM 15.8 °F 8.6 °F 14.0 °F 93% 30.29 in 10.0 mi WNW 4.6 mph - N/A   Clear
11:52 PM 15.8 °F 7.2 °F 14.0 °F 93% 30.29 in 10.0 mi WNW 5.8 mph - N/A   Clear